When you browse on this site, cookies collect data to enhance your experience and personalize the content and advertising you see.
Visit our Privacy Policy to learn more. By continuing to use the site, you agree to this use of cookies and data.
  • In Sweden
  • List of Countries
  • For 7 days
  • Water Temperature
  • Satellite Maps
  • Weather Map
  • Weather Widgets
  • user-avatar
    Login

    Hourly Weather Tabuk

    Today, 21 July, Sunday

    Time Temperature Precipitation Wind Pressure Humidity
    00:00 +26°C° 0 mm 2 mps 683 mmHg 35%
    01:00 +25°C° 0 mm 2 mps 683 mmHg 39%
    02:00 +24°C° 0 mm 2 mps 683 mmHg 43%
    03:00 +23°C° 0 mm 2 mps 682 mmHg 47%
    04:00 +23°C° 0 mm 2 mps 682 mmHg 51%
    05:00 +21°C° 0 mm 2 mps 682 mmHg 55%
    06:00 +24°C° 0 mm 2 mps 682 mmHg 50%
    07:00 +26°C° 0 mm 3 mps 683 mmHg 45%
    08:00 +28°C° 0 mm 3 mps 683 mmHg 40%
    09:00 +30°C° 0 mm 3 mps 683 mmHg 34%
    10:00 +32°C° 0 mm 2 mps 684 mmHg 27%
    11:00 +36°C° 0 mm 2 mps 684 mmHg 20%
    12:00 +37°C° 0 mm 2 mps 683 mmHg 18%
    13:00 +38°C° 0 mm 3 mps 683 mmHg 15%
    14:00 +40°C° 0 mm 3 mps 683 mmHg 12%
    15:00 +41°C° 0 mm 4 mps 683 mmHg 12%
    16:00 +40°C° 0 mm 4 mps 682 mmHg 13%
    17:00 +40°C° 0 mm 5 mps 682 mmHg 13%
    18:00 +37°C° 0 mm 5 mps 682 mmHg 16%
    19:00 +34°C° 0 mm 4 mps 682 mmHg 20%
    20:00 +32°C° 0 mm 4 mps 682 mmHg 23%
    21:00 +30°C° 0 mm 4 mps 682 mmHg 25%
    22:00 +29°C° 0 mm 4 mps 682 mmHg 27%
    23:00 +28°C° 0 mm 4 mps 682 mmHg 29%

    Tomorrow, 22 July, Monday

    Time Temperature Precipitation Wind Pressure Humidity
    00:00 +27°C° 0 mm 4 mps 682 mmHg 34%
    01:00 +26°C° 0 mm 4 mps 681 mmHg 40%
    02:00 +25°C° 0 mm 5 mps 681 mmHg 45%
    03:00 +23°C° 0 mm 4 mps 681 mmHg 50%
    04:00 +22°C° 0 mm 3 mps 681 mmHg 56%
    05:00 +21°C° 0 mm 3 mps 680 mmHg 62%
    06:00 +24°C° 0 mm 3 mps 681 mmHg 53%
    07:00 +27°C° 0 mm 3 mps 682 mmHg 45%
    08:00 +29°C° 0 mm 3 mps 682 mmHg 36%
    09:00 +31°C° 0 mm 3 mps 682 mmHg 30%
    10:00 +34°C° 0 mm 2 mps 683 mmHg 24%
    11:00 +36°C° 0 mm 2 mps 683 mmHg 18%
    12:00 +38°C° 0 mm 2 mps 682 mmHg 15%
    13:00 +40°C° 0 mm 3 mps 682 mmHg 12%
    14:00 +42°C° 0 mm 4 mps 682 mmHg 9%
    15:00 +42°C° 0 mm 4 mps 682 mmHg 9%
    16:00 +41°C° 0 mm 5 mps 681 mmHg 9%
    17:00 +41°C° 0 mm 6 mps 681 mmHg 10%
    18:00 +39°C° 0 mm 6 mps 681 mmHg 14%
    19:00 +35°C° 0 mm 5 mps 681 mmHg 18%
    20:00 +32°C° 0 mm 4 mps 681 mmHg 22%
    21:00 +30°C° 0 mm 4 mps 681 mmHg 24%
    22:00 +29°C° 0 mm 3 mps 681 mmHg 27%
    23:00 +28°C° 0 mm 2 mps 681 mmHg 29%

    Day after tomorrow, 23 July, Tuesday

    Time Temperature Precipitation Wind Pressure Humidity
    00:00 +27°C° 0 mm 2 mps 680 mmHg 31%
    01:00 +26°C° 0 mm 2 mps 680 mmHg 32%
    02:00 +25°C° 0 mm 1 mps 679 mmHg 34%
    03:00 +25°C° 0 mm 1 mps 679 mmHg 38%
    04:00 +24°C° 0 mm 1 mps 679 mmHg 41%
    05:00 +23°C° 0 mm 1 mps 679 mmHg 45%
    06:00 +26°C° 0 mm 1 mps 680 mmHg 39%
    07:00 +28°C° 0 mm 1 mps 681 mmHg 34%
    08:00 +31°C° 0 mm 1 mps 682 mmHg 29%
    09:00 +35°C° 0 mm 2 mps 682 mmHg 23%
    10:00 +37°C° 0 mm 3 mps 682 mmHg 16%
    11:00 +41°C° 0 mm 4 mps 682 mmHg 10%
    12:00 +42°C° 0 mm 5 mps 682 mmHg 8%
    13:00 +44°C° 0 mm 7 mps 682 mmHg 7%
    14:00 +45°C° 0 mm 8 mps 682 mmHg 6%
    15:00 +44°C° 0 mm 8 mps 682 mmHg 7%
    16:00 +43°C° 0 mm 8 mps 681 mmHg 9%
    17:00 +41°C° 0 mm 7 mps 681 mmHg 10%
    18:00 +38°C° 0 mm 7 mps 681 mmHg 14%
    19:00 +34°C° 0 mm 6 mps 681 mmHg 17%
    20:00 +32°C° 0 mm 5 mps 681 mmHg 21%
    21:00 +30°C° 0 mm 4 mps 681 mmHg 21%
    22:00 +29°C° 0 mm 4 mps 681 mmHg 21%
    23:00 +28°C° 0 mm 3 mps 681 mmHg 22%

    24 July, Wednesday

    Time Temperature Precipitation Wind Pressure Humidity
    00:00 +27°C° 0 mm 3 mps 681 mmHg 25%
    01:00 +26°C° 0 mm 2 mps 681 mmHg 28%
    02:00 +25°C° 0 mm 1 mps 680 mmHg 31%
    03:00 +24°C° 0 mm 1 mps 680 mmHg 35%
    04:00 +24°C° 0 mm 1 mps 680 mmHg 39%
    05:00 +23°C° 0 mm 1 mps 680 mmHg 43%
    06:00 +26°C° 0 mm 2 mps 681 mmHg 39%
    07:00 +28°C° 0 mm 2 mps 682 mmHg 36%
    08:00 +30°C° 0 mm 2 mps 682 mmHg 32%
    09:00 +32°C° 0 mm 2 mps 683 mmHg 26%
    10:00 +35°C° 0 mm 2 mps 683 mmHg 21%
    11:00 +37°C° 0 mm 1 mps 683 mmHg 16%
    12:00 +39°C° 0 mm 2 mps 683 mmHg 14%
    13:00 +40°C° 0 mm 3 mps 683 mmHg 12%
    14:00 +43°C° 0 mm 3 mps 682 mmHg 10%
    15:00 +43°C° 0 mm 4 mps 682 mmHg 10%
    16:00 +42°C° 0 mm 4 mps 682 mmHg 10%
    17:00 +42°C° 0 mm 5 mps 682 mmHg 10%
    18:00 +40°C° 0 mm 5 mps 682 mmHg 13%
    19:00 +36°C° 0 mm 4 mps 682 mmHg 16%
    20:00 +33°C° 0 mm 4 mps 682 mmHg 19%
    21:00 +31°C° 0 mm 3 mps 681 mmHg 20%
    22:00 +30°C° 0 mm 3 mps 681 mmHg 21%
    23:00 +29°C° 0 mm 2 mps 681 mmHg 22%

    25 July, Thursday

    Time Temperature Precipitation Wind Pressure Humidity
    00:00 +28°C° 0 mm 3 mps 681 mmHg 24%
    01:00 +27°C° 0 mm 3 mps 681 mmHg 27%
    02:00 +27°C° 0 mm 4 mps 681 mmHg 29%
    03:00 +26°C° 0 mm 3 mps 681 mmHg 33%
    04:00 +25°C° 0 mm 3 mps 681 mmHg 36%
    05:00 +24°C° 0 mm 2 mps 681 mmHg 40%
    06:00 +26°C° 0 mm 2 mps 681 mmHg 35%
    07:00 +28°C° 0 mm 3 mps 682 mmHg 29%
    08:00 +31°C° 0 mm 3 mps 683 mmHg 24%
    09:00 +34°C° 0 mm 3 mps 683 mmHg 21%
    10:00 +37°C° 0 mm 3 mps 683 mmHg 17%
    11:00 +39°C° 0 mm 3 mps 683 mmHg 14%
    12:00 +42°C° 0 mm 3 mps 683 mmHg 12%
    13:00 +43°C° 0 mm 3 mps 683 mmHg 10%
    14:00 +45°C° 0 mm 3 mps 683 mmHg 9%
    15:00 +45°C° 0 mm 3 mps 682 mmHg 9%
    16:00 +44°C° 0 mm 4 mps 682 mmHg 9%
    17:00 +44°C° 0 mm 4 mps 682 mmHg 9%
    18:00 +41°C° 0 mm 4 mps 682 mmHg 12%
    19:00 +38°C° 0 mm 4 mps 681 mmHg 14%
    20:00 +35°C° 0 mm 3 mps 681 mmHg 17%
    21:00 +34°C° 0 mm 3 mps 681 mmHg 18%
    22:00 +32°C° 0 mm 2 mps 681 mmHg 18%
    23:00 +30°C° 0 mm 2 mps 681 mmHg 19%

    26 July, Friday

    Time Temperature Precipitation Wind Pressure Humidity
    00:00 +30°C° 0 mm 2 mps 680 mmHg 20%
    01:00 +29°C° 0 mm 3 mps 680 mmHg 21%
    02:00 +28°C° 0 mm 3 mps 680 mmHg 21%
    03:00 +27°C° 0 mm 3 mps 680 mmHg 24%
    04:00 +26°C° 0 mm 3 mps 680 mmHg 26%
    05:00 +25°C° 0 mm 2 mps 680 mmHg 29%
    06:00 +27°C° 0 mm 3 mps 681 mmHg 26%
    07:00 +29°C° 0 mm 3 mps 681 mmHg 23%
    08:00 +33°C° 0 mm 3 mps 682 mmHg 21%
    09:00 +35°C° 0 mm 3 mps 682 mmHg 18%
    10:00 +38°C° 0 mm 3 mps 682 mmHg 14%
    11:00 +40°C° 0 mm 3 mps 682 mmHg 11%
    12:00 +42°C° 0 mm 2 mps 682 mmHg 10%
    13:00 +43°C° 0 mm 2 mps 681 mmHg 9%
    14:00 +46°C° 0 mm 2 mps 681 mmHg 7%
    15:00 +46°C° 0 mm 3 mps 681 mmHg 7%
    16:00 +47°C° 0 mm 4 mps 681 mmHg 7%
    17:00 +47°C° 0 mm 5 mps 680 mmHg 8%
    18:00 +43°C° 0 mm 5 mps 680 mmHg 10%
    19:00 +40°C° 0 mm 4 mps 680 mmHg 12%
    20:00 +36°C° 0 mm 4 mps 680 mmHg 14%
    21:00 +35°C° 0 mm 4 mps 680 mmHg 15%
    22:00 +34°C° 0 mm 3 mps 680 mmHg 17%
    23:00 +31°C° 0 mm 3 mps 680 mmHg 18%
    Show more